Location: Asni�res
(49.1337°N, 2.3555°E)
Time: 08:15:47
(UTC+00:00)

Orbus 7S? - Pass Details

Date: 16 October 2021
Orbit: 328 x 6409 km, 56.9° (Epoch: 01 November)

Event Time Altitude Azimuth Distance (km) Brightness Sun altitude
Rises 19:28:06 0° 301° (WNW) 5,943 9.8 -25.1°
Reaches altitude 10° 19:33:11 10° 303° (WNW) 3,980 8.6 -25.9°
Enters shadow 19:41:37 81° 14° (NNE) 813 4.0 -27.2°
